This demonstration page uses our WeatherBlox Daily Observations layout. Learn more.

Hourly Observations for November 26, 2016

Temp ( °F °C ) Dew Point ( °F °C ) Humidity (%) Winds ( mph kmh ) Pressure ( in mb ) Visibility ( mi km ) Precip ( " mm )
12:54 am 00:54 Clear 36 2.2 30 -1.1 79 79 S 8 13 30.27 1025 10 16.0934 0 0
1:54 am 01:54 Clear 40 4.4 32 0 73 73 SSW 10 17 30.25 1024 10 16.0934 0 0
2:54 am 02:54 Clear 40 4.4 32 0 73 73 SSW 13 20 30.24 1024 10 16.0934 0 0
3:54 am 03:54 Clear 38 3.3 31 -0.6 76 76 SSW 13 20 30.22 1023 10 16.0934 0 0
4:54 am 04:54 Clear 38 3.3 31 -0.6 76 76 SSW 15 24 30.21 1023 10 16.0934 0 0
5:54 am 05:54 Clear 39 3.9 31 -0.6 73 73 SSW 14 22 30.21 1023 10 16.0934 0 0
6:54 am 06:54 Clear 37 2.8 31 -0.6 79 79 SSW 9 15 30.2 1023 10 16.0934 0 0
7:54 am 07:54 Sunny 37 2.8 31 -0.6 79 79 SSW 8 13 30.2 1023 10 16.0934 0 0
8:54 am 08:54 Sunny 40 4.4 32 0 73 73 SW 12 19 30.2 1023 10 16.0934 0 0
9:54 am 09:54 Sunny 44 6.7 32 0 63 63 SW 13 20 30.19 1022 10 16.0934 0 0
10:54 am 10:54 Sunny 47 8.3 31 -0.6 54 54 SW 15 24 30.17 1022 10 16.0934 0 0
11:54 am 11:54 Sunny 50 10 31 -0.6 48 48 SW 14 22 30.13 1020 10 16.0934 0 0
12:54 pm 12:54 Sunny 56 13.3 31 -0.6 39 39 WSW 13 20 30.1 1019 10 16.0934 0 0
1:54 pm 13:54 Sunny 57 13.9 32 0 39 39 SW 15 24 30.07 1018 10 16.0934 0 0
2:54 pm 14:54 Sunny 60 15.6 32 0 35 35 SW 16 26 30.05 1018 10 16.0934 0 0
3:54 pm 15:54 Sunny 57 13.9 34 1.1 42 42 SSW 13 20 30.04 1017 10 16.0934 0 0
4:54 pm 16:54 Sunny 53 11.7 33 0.6 47 47 SW 9 15 30.05 1018 10 16.0934 0 0
5:54 pm 17:54 Clear 45 7.2 33 0.6 63 63 Calm 30.05 1018 10 16.0934 0 0
6:54 pm 18:54 Clear 43 6.1 33 0.6 68 68 Calm 30.05 1018 10 16.0934 0 0
7:54 pm 19:54 Clear 37 2.8 31 -0.6 79 79 Calm 30.05 1018 10 16.0934 0 0
8:54 pm 20:54 Clear 34 1.1 31 -0.6 89 89 SSE 5 7 30.04 1017 10 16.0934 0 0
9:54 pm 21:54 Clear 37 2.8 32 0 82 82 S 7 11 30.01 1016 10 16.0934 0 0
10:54 pm 22:54 Clear 36 2.2 32 0 86 86 SSE 6 9 29.98 1015 10 16.0934 0 0
11:54 pm 23:54 Clear 36 2.2 33 0.6 89 89 NNW 5 7 29.97 1015 10 16.0934 0 0

Powered by AerisWeather